Date String (YYYY-MM-DD hh:mm:ss) UTC,Instrument flags,Ambient pressure (hPa),Sample flow (lpm),Bypass flow (lpm),Sample temperature (°C),Ambient temperature (°C),ASC tube jacket temperature (°C),LED temperature (°C),Box temperature (°C),Sample RH (%),Span deviation,Mass concentration (μg/m³),Mass concentration (μg/m³),Mass concentration (μg/m³)
DateTimeUTC,F1_M11,P_M11,Q1_M11,Q2_M11,T1_M11,T2_M11,T3_M11,T4_M11,T5_M11,U1_M11,ZSPAN_M11,X0_M11,X2_M11,X1_M11
2021-10-25 04:00:00,,0824.1,5.00,0.00,29.8,29.0,00.0,38.9,31.5,10.9,0000.0,0011.18,0003.21,0002.01
2021-10-25 04:01:00,,0824.1,5.00,0.00,29.8,29.0,00.0,38.9,31.5,10.9,0000.0,0010.58,0003.19,0002.00
2021-10-25 04:02:00,,0824.1,5.01,0.00,29.8,29.0,00.0,38.9,31.5,10.9,0000.0,0010.16,0003.17,0001.98
2021-10-25 04:03:00,,0824.1,5.01,0.00,29.8,29.0,00.0,38.9,31.6,10.9,0000.0,0010.10,0003.17,0001.96
2021-10-25 04:04:00,,0824.1,5.00,0.00,29.8,29.0,00.0,38.9,31.5,10.9,0000.0,0009.81,0003.14,0001.95
2021-10-25 04:05:00,,0824.1,5.00,0.00,29.8,29.0,00.0,38.9,31.5,10.8,0000.0,0009.49,0003.16,0001.93
2021-10-25 04:06:00,,0824.1,5.00,0.00,29.8,29.0,00.0,38.9,31.5,10.8,0000.0,0008.71,0003.15,0001.92
2021-10-25 04:07:00,,0824.1,4.99,0.00,29.8,29.0,00.0,38.9,31.5,10.8,0000.0,0008.58,0003.15,0001.93
2021-10-25 04:08:00,,0824.0,4.99,0.00,29.8,29.0,00.0,38.9,31.5,10.8,0000.0,0009.07,0003.13,0001.91
2021-10-25 04:09:00,,0824.1,5.02,0.00,29.8,29.0,00.0,38.9,31.6,10.8,0000.0,0008.80,0003.13,0001.92
2021-10-25 04:10:00,,0824.2,4.99,0.00,29.8,29.0,00.0,38.9,31.5,11.0,0000.0,0008.69,0003.12,0001.92
2021-10-25 04:11:00,,0824.1,5.00,0.00,29.8,29.0,00.0,38.9,31.5,11.3,0000.0,0008.48,0003.13,0001.96
2021-10-25 04:12:00,,0824.1,5.00,0.00,29.8,28.9,00.0,38.9,31.5,11.2,0000.0,0008.60,0003.14,0001.98
2021-10-25 04:13:00,,0824.1,5.00,0.00,29.8,28.9,00.0,38.9,31.5,11.3,0000.0,0009.24,0003.17,0002.01
2021-10-25 04:14:00,,0824.1,4.99,0.00,29.8,28.9,00.0,38.9,31.5,11.3,0000.0,0009.15,0003.21,0002.04
2021-10-25 04:15:00,,0824.1,4.99,0.00,29.8,29.0,00.0,38.9,31.5,11.3,0000.0,0009.41,0003.24,0002.06
2021-10-25 04:16:00,,0824.2,5.01,0.00,29.8,29.0,00.0,38.9,31.6,11.4,0000.0,0009.86,0003.27,0002.09
2021-10-25 04:17:00,,0824.3,5.01,0.00,29.8,29.0,00.0,38.9,31.5,11.4,0000.0,0010.11,0003.31,0002.14
2021-10-25 04:18:00,,0824.2,4.99,0.00,29.8,29.0,00.0,38.9,31.6,11.4,0000.0,0010.11,0003.31,0002.16
2021-10-25 04:19:00,,0824.3,5.01,0.00,29.8,29.0,00.0,38.9,31.6,11.4,0000.0,0009.84,0003.35,0002.19
2021-10-25 04:20:00,,0824.3,4.99,0.00,29.8,29.0,00.0,38.9,31.6,11.4,0000.0,0010.60,0003.39,0002.21
2021-10-25 04:21:00,,0824.3,5.02,0.00,29.9,29.0,00.0,38.9,31.6,11.4,0000.0,0011.50,0003.42,0002.23
2021-10-25 04:22:00,,0824.3,5.00,0.00,29.9,29.0,00.0,38.9,31.6,11.6,0000.0,0011.43,0003.49,0002.25
2021-10-25 04:23:00,,0824.4,4.99,0.00,29.9,29.0,00.0,38.9,31.6,11.7,0000.0,0011.68,0003.53,0002.31
2021-10-25 04:24:00,,0824.4,5.01,0.00,29.9,29.1,00.0,38.9,31.6,11.7,0000.0,0011.62,0003.57,0002.38
2021-10-25 04:25:00,,0824.4,5.00,0.00,29.9,29.1,00.0,39.0,31.6,11.8,0000.0,0012.23,0003.60,0002.45
2021-10-25 04:26:00,,0824.4,5.01,0.00,29.9,29.0,00.0,39.0,31.6,11.8,0000.0,0012.14,0003.70,0002.57
2021-10-25 04:27:00,,0824.4,4.99,0.00,29.9,29.1,00.0,39.0,31.6,11.8,0000.0,0012.04,0003.79,0002.66
2021-10-25 04:28:00,,0824.5,5.02,0.00,29.9,29.0,00.0,39.0,31.6,11.8,0000.0,0012.17,0003.90,0002.73
2021-10-25 04:29:00,,0824.4,4.99,0.00,29.9,29.0,00.0,39.0,31.6,11.8,0000.0,0012.30,0004.01,0002.81
2021-10-25 04:30:00,,0824.3,5.00,0.00,29.9,29.0,00.0,39.0,31.6,11.9,0000.0,0012.30,0004.11,0002.91
2021-10-25 04:31:00,,0824.3,4.99,0.00,29.9,29.0,00.0,38.9,31.6,11.9,0000.0,0012.13,0004.26,0002.99
2021-10-25 04:32:00,,0824.2,5.01,0.00,29.9,29.0,00.0,38.9,31.6,11.9,0000.0,0011.47,0004.35,0003.06
2021-10-25 04:33:00,,0824.3,5.00,0.00,29.9,29.0,00.0,39.0,31.6,11.9,0000.0,0011.64,0004.43,0003.12
2021-10-25 04:34:00,,0824.3,4.99,0.00,29.9,29.0,00.0,38.9,31.6,11.9,0000.0,0012.15,0004.49,0003.15
2021-10-25 04:35:00,,0824.3,5.01,0.00,29.9,29.0,00.0,38.9,31.6,11.9,0000.0,0013.85,0004.57,0003.16
2021-10-25 04:36:00,,0824.4,5.00,0.00,29.9,29.0,00.0,38.9,31.6,11.9,0000.0,0014.36,0004.66,0003.18
2021-10-25 04:37:00,,0824.4,5.00,0.00,29.9,29.0,00.0,38.9,31.6,11.9,0000.0,0014.57,0004.70,0003.19
2021-10-25 04:38:00,,0824.4,5.01,0.00,29.9,29.0,00.0,38.9,31.6,11.6,0000.0,0014.61,0004.63,0003.18
2021-10-25 04:39:00,,0824.4,5.00,0.00,29.9,29.0,00.0,38.9,31.6,11.7,0000.0,0015.21,0004.58,0003.17
2021-10-25 04:40:00,,0824.3,5.00,0.00,29.9,29.0,00.0,39.0,31.6,11.8,0000.0,0015.87,0004.57,0003.18
2021-10-25 04:41:00,,0824.4,4.99,0.00,29.9,29.0,00.0,39.0,31.6,11.8,0000.0,0016.39,0004.60,0003.19
2021-10-25 04:42:00,,0824.4,5.00,0.00,29.9,29.0,00.0,39.0,31.6,11.7,0000.0,0016.19,0004.53,0003.19
2021-10-25 04:43:00,,0824.4,5.01,0.00,29.9,29.0,00.0,39.0,31.6,11.8,0000.0,0016.26,0004.44,0003.17
2021-10-25 04:44:00,,0824.3,5.00,0.00,29.9,29.0,00.0,39.0,31.6,12.1,0000.0,0017.29,0004.40,0003.16
2021-10-25 04:45:00,,0824.3,5.00,0.00,29.9,29.0,00.0,39.0,31.7,12.1,0000.0,0018.34,0004.44,0003.14
2021-10-25 04:46:00,,0824.3,5.00,0.00,29.9,29.0,00.0,39.0,31.6,12.1,0000.0,0017.08,0004.46,0003.10
2021-10-25 04:47:00,,0824.3,5.00,0.00,29.9,29.0,00.0,39.0,31.6,11.9,0000.0,0016.74,0004.44,0003.04
2021-10-25 04:48:00,,0824.3,5.01,0.00,29.9,29.0,00.0,39.0,31.5,11.9,0000.0,0016.93,0004.37,0002.99
2021-10-25 04:49:00,,0824.3,4.99,0.00,29.9,29.0,00.0,39.0,31.6,11.8,0000.0,0017.08,0004.38,0002.98
2021-10-25 04:50:00,,0824.3,5.01,0.00,29.9,29.0,00.0,39.0,31.6,11.8,0000.0,0016.61,0004.46,0002.99
2021-10-25 04:51:00,,0824.4,5.00,0.00,29.9,29.0,00.0,39.0,31.6,11.8,0000.0,0016.07,0004.49,0002.94
2021-10-25 04:52:00,,0824.4,4.99,0.00,29.9,29.0,00.0,39.0,31.6,11.7,0000.0,0015.61,0004.48,0002.89
2021-10-25 04:53:00,,0824.4,5.00,0.00,29.9,29.0,00.0,38.9,31.6,11.7,0000.0,0016.74,0004.48,0002.84
2021-10-25 04:54:00,,0824.4,5.00,0.00,29.8,29.0,00.0,38.9,31.6,11.7,0000.0,0017.43,0004.49,0002.83
2021-10-25 04:55:00,,0824.4,4.99,0.00,29.8,29.0,00.0,38.9,31.6,11.7,0000.0,0016.88,0004.51,0002.82
2021-10-25 04:56:00,,0824.3,5.00,0.00,29.8,29.0,00.0,38.9,31.5,11.7,0000.0,0015.02,0004.44,0002.78
2021-10-25 04:57:00,,0824.3,5.01,0.00,29.8,28.9,00.0,38.9,31.5,11.7,0000.0,0014.29,0004.37,0002.77
2021-10-25 04:58:00,,0824.3,5.01,0.00,29.8,28.9,00.0,38.9,31.5,11.7,0000.0,0014.37,0004.30,0002.76
2021-10-25 04:59:00,,0824.3,5.00,0.00,29.8,28.9,00.0,38.9,31.5,11.7,0000.0,0014.30,0004.26,0002.72
